This is the latest recevied weather packets stored in our database for station/object CE3MXM-13. If no packets are shown the sender has not sent any weather packets the latest 10 day(s).
| Time | Temp. | Humidity | Pressure | Rain* | Wind** | Luminosity | Snow |
|---|---|---|---|---|---|---|---|
| 1777834151 | 26.11° C | 38% | 1012.3 hPa | - | - | - | - |
| 1777833851 | 25.56° C | 38% | 1012 hPa | - | - | - | - |
| 1777833551 | 26.67° C | 39% | 1012.2 hPa | - | - | - | - |
| 1777833251 | 26.67° C | 37% | 1012.3 hPa | - | - | - | - |
| 1777832951 | 26.67° C | 38% | 1012.2 hPa | - | - | - | - |
| 1777832650 | 26.67° C | 40% | 1012.4 hPa | - | - | - | - |
| 1777832350 | 25.56° C | 40% | 1012.3 hPa | - | - | - | - |
| 1777832050 | 26.11° C | 40% | 1012.4 hPa | - | - | - | - |
| 1777831750 | 26.11° C | 39% | 1012.3 hPa | - | - | - | - |
| 1777831450 | 26.11° C | 39% | 1012.4 hPa | - | - | - | - |
| 1777831150 | 26.67° C | 38% | 1012.1 hPa | - | - | - | - |
| 1777830850 | 26.67° C | 37% | 1012.3 hPa | - | - | - | - |
| 1777830550 | 26.67° C | 38% | 1012.4 hPa | - | - | - | - |
| 1777830249 | 26.67° C | 36% | 1012.2 hPa | - | - | - | - |
| 1777829950 | 25.56° C | 37% | 1012.3 hPa | - | - | - | - |
| 1777829650 | 26.11° C | 37% | 1012.4 hPa | - | - | - | - |
| 1777829349 | 25.56° C | 39% | 1012.3 hPa | - | - | - | - |
| 1777829049 | 26.11° C | 36% | 1012.2 hPa | - | - | - | - |
| 1777828749 | 26.11° C | 36% | 1012.4 hPa | - | - | - | - |
| 1777828449 | 26.67° C | 34% | 1012.2 hPa | - | - | - | - |
| 1777828150 | 26.67° C | 35% | 1012.2 hPa | - | - | - | - |
| 1777827849 | 26.11° C | 35% | 1012.3 hPa | - | - | - | - |
| 1777827549 | 25° C | 37% | 1012.5 hPa | - | - | - | - |
| 1777827249 | 25° C | 37% | 1012.5 hPa | - | - | - | - |
| 1777826948 | 25.56° C | 37% | 1012.7 hPa | - | - | - | - |
* Rain since midnight (hover to see other rain measurements)
** Current wind speed in m/s (hover to see current wind gust speed)